sat.trackr.live / text

‹ back to catalog

STARLINK-3536

NORAD 51888 · 2022-022AN

PAYLOAD ACTIVE UNKNOWN

§ Identity

Operator
Country
US
Launch date
2022-03-03
Launch site
AFETR
Launch vehicle
Mass (kg)
RCS (m²)

Purposes: comms

External: N2YO · Heavens-Above · Gunter

§ Orbital elements

Epoch: 2026-05-24T22:36:55.049184Z

Period
95.44 min
Inclination
53.2152°
Eccentricity
0.0001476
Mean motion
15.08835343 rev/d
Perigee alt
538.7 km
Apogee alt
540.8 km
Semi-major
6,917.9 km
B*
1.1775e-4
RAAN
16.8096°
Arg perigee
95.5689°
Mean anomaly
264.5471°
Rev number
23,476

§ Raw data

STARLINK-35361 51888U 22022AN  26144.94230381  .00001586  00000+0  11775-3 0  99982 51888  53.2152  16.8096 0001476  95.5689 264.5471 15.08835343234761

JSON: /api/v1/satellites/51888 · /tle

For live sub-satellite position, see the globe view (requires WebGL).

§ Visibility from observer

Set your observer location to see the next 7 days of passes ≥ 10°. The values pass through the URL so the page stays shareable.

No JS? Fill the form by hand. The geolocation button needs JavaScript.